TimeEST,TemperatureF,Dew PointF,Humidity,Sea Level PressureIn,VisibilityMPH,Wind Direction,Wind SpeedMPH,Gust SpeedMPH,PrecipitationIn,Events,Conditions,WindDirDegrees,DateUTC
12:53 AM,48.0,44.1,86,30.19,10.0,Calm,Calm,-,N/A,,Clear,0,2012-11-09 05:53:00
1:53 AM,48.9,43.0,80,30.19,10.0,Calm,Calm,-,N/A,,Clear,0,2012-11-09 06:53:00
2:53 AM,46.0,41.0,83,30.19,10.0,Calm,Calm,-,N/A,,Clear,0,2012-11-09 07:53:00
3:53 AM,46.9,44.1,90,30.19,10.0,NNW,5.8,-,N/A,,Clear,340,2012-11-09 08:53:00
4:53 AM,46.9,44.1,90,30.21,10.0,North,6.9,-,N/A,,Clear,360,2012-11-09 09:53:00
5:53 AM,48.0,44.1,86,30.22,10.0,North,8.1,-,N/A,,Clear,350,2012-11-09 10:53:00
6:53 AM,48.0,44.1,86,30.23,10.0,North,6.9,-,N/A,,Clear,350,2012-11-09 11:53:00
7:53 AM,55.0,46.0,72,30.25,10.0,North,8.1,-,N/A,,Clear,350,2012-11-09 12:53:00
8:53 AM,61.0,44.1,54,30.27,10.0,North,13.8,-,N/A,,Clear,360,2012-11-09 13:53:00
9:53 AM,66.0,46.0,48,30.27,10.0,NNE,13.8,-,N/A,,Clear,20,2012-11-09 14:53:00
10:53 AM,69.1,46.9,45,30.28,10.0,NNE,11.5,16.1,N/A,,Clear,20,2012-11-09 15:53:00
11:53 AM,71.1,43.0,36,30.27,10.0,North,8.1,-,N/A,,Clear,360,2012-11-09 16:53:00
12:53 PM,72.0,42.1,34,30.24,10.0,NNE,6.9,-,N/A,,Clear,30,2012-11-09 17:53:00
1:53 PM,72.0,39.0,30,30.22,10.0,NNW,8.1,-,N/A,,Clear,340,2012-11-09 18:53:00
2:53 PM,73.9,37.9,27,30.21,10.0,NE,9.2,-,N/A,,Clear,50,2012-11-09 19:53:00
3:53 PM,72.0,36.0,27,30.20,10.0,NE,5.8,-,N/A,,Clear,40,2012-11-09 20:53:00
4:53 PM,69.1,37.0,31,30.21,10.0,NE,8.1,-,N/A,,Partly Cloudy,50,2012-11-09 21:53:00
5:53 PM,64.0,45.0,50,30.22,10.0,ENE,8.1,-,N/A,,Mostly Cloudy,70,2012-11-09 22:53:00
6:53 PM,62.1,48.0,60,30.23,10.0,NE,9.2,-,N/A,,Mostly Cloudy,50,2012-11-09 23:53:00
7:53 PM,60.1,48.9,67,30.24,10.0,NE,9.2,-,N/A,,Mostly Cloudy,40,2012-11-10 00:53:00
8:53 PM,57.0,48.9,74,30.25,10.0,North,4.6,-,N/A,,Scattered Clouds,10,2012-11-10 01:53:00
9:53 PM,54.0,48.0,80,30.26,10.0,North,5.8,-,N/A,,Partly Cloudy,10,2012-11-10 02:53:00
10:53 PM,54.0,48.0,80,30.26,10.0,North,6.9,-,N/A,,Clear,350,2012-11-10 03:53:00
11:53 PM,55.0,48.9,80,30.25,10.0,North,5.8,-,N/A,,Clear,350,2012-11-10 04:53:00